Theta_e
316 316 316 316 316 314 314 314 314 314 314 315 315 316 316 317 317 318 318 317 317 317 316 316 315 315 315 315 314 314 314 315 318 321 323 322 322 321 322 322 322 323 323 323 326 326 325 324 324 325 326 325 325 326 326 326 326 325 325 324 323 322 321 319 316 316 317 321 323 324 326 327 326 328 326 326 324 324 323 324 322 320 319 318 315
314 313 313 313 313 313 313 313 312 312 312 312 313 314 314 315 316 316 315 315 315 314 313 313 313 312 312 312 311 311 311 312 313 315 320 322 322 322 321 322 322 320 321 322 323 324 324 324 324 325 326 326 325 326 325 325 325 323 323 323 322 321 322 319 317 316 316 318 320 324 325 326 324 327 326 324 322 322 323 323 322 321 319 318 316
311 311 310 310 311 312 311 311 311 311 311 312 312 312 312 313 314 313 313 313 313 312 311 311 310 310 310 310 309 309 310 310 311 312 314 317 320 322 322 321 321 320 320 320 321 322 322 321 320 323 325 324 323 323 324 324 324 323 322 322 321 321 322 322 319 316 317 316 320 321 323 325 324 325 326 326 324 323 323 322 322 321 321 319 317
310 311 311 311 311 311 311 311 311 311 311 311 310 311 311 311 312 311 311 311 310 311 311 310 309 308 308 308 308 308 309 310 310 310 312 314 317 320 322 321 321 320 320 321 321 321 321 320 320 320 321 321 321 321 321 323 323 322 322 321 322 322 321 321 321 318 317 316 318 321 323 323 324 326 327 324 322 323 323 323 323 321 320 320 319
311 312 312 311 311 310 310 310 310 309 309 310 309 310 309 309 310 309 308 308 308 309 309 309 308 307 307 307 307 307 308 308 309 310 312 316 319 321 321 322 322 322 322 322 324 322 321 321 321 321 321 320 319 319 320 321 322 322 321 321 321 321 321 321 320 320 318 317 316 320 322 324 325 325 325 322 321 323 324 323 322 321 320 321 321
311 311 311 310 309 309 309 309 308 308 308 308 308 308 308 307 307 307 306 305 305 306 307 307 308 306 306 306 306 306 307 307 307 308 313 318 320 322 323 323 322 322 321 321 320 320 320 320 321 321 321 321 320 320 321 321 322 321 321 321 321 321 321 321 320 319 319 318 317 316 320 321 320 322 324 323 321 320 321 322 323 323 320 319 321
312 311 310 309 308 308 308 307 307 307 307 307 307 307 306 305 305 304 304 304 303 303 305 305 306 306 305 305 305 306 306 306 306 308 313 316 317 317 318 319 321 320 320 319 319 319 318 318 317 317 319 321 320 320 320 320 320 320 321 321 321 320 317 318 320 319 318 318 317 318 319 320 320 318 323 324 321 320 319 318 318 321 320 319 318
311 310 309 308 308 307 307 307 306 306 306 306 305 305 304 303 302 302 302 302 302 302 303 304 304 304 304 305 305 306 305 305 304 306 311 314 315 314 313 313 314 315 316 316 316 315 315 316 317 315 314 314 315 320 320 319 319 319 319 320 320 319 317 317 317 317 317 317 317 316 317 316 316 318 320 320 318 317 320 319 316 316 317 319 319
309 309 308 307 307 307 306 306 306 305 305 304 303 303 302 301 301 301 301 301 302 302 303 303 303 303 303 303 302 303 303 303 304 304 307 311 311 310 309 308 308 308 309 310 312 313 314 314 316 316 315 314 308 306 310 315 319 318 317 318 318 318 317 317 317 317 317 316 315 315 315 315 315 315 315 315 315 316 319 320 318 318 318 316 317
309 308 307 306 307 307 306 306 305 304 303 302 301 301 300 300 300 299 300 301 301 302 302 303 303 302 301 301 301 301 301 301 302 300 302 307 307 306 306 305 304 304 305 306 307 309 312 313 315 316 314 312 307 301 299 299 304 312 316 319 318 317 317 316 315 316 316 316 316 315 314 314 314 315 314 315 316 317 318 318 315 317 316 314 313
308 307 306 306 306 306 305 304 303 302 301 300 299 299 299 299 298 298 299 299 299 300 300 300 301 301 301 300 299 300 300 300 297 296 297 300 305 304 304 303 303 303 302 302 303 304 308 311 312 314 314 314 311 303 300 299 298 298 298 301 305 313 317 316 316 315 315 315 314 314 314 313 314 315 315 314 315 317 317 317 316 315 313 310 308
306 306 306 306 305 304 303 302 300 299 299 298 298 298 298 297 297 297 297 297 298 298 298 298 299 300 300 299 298 298 298 297 295 296 296 296 301 304 303 302 302 302 302 301 302 302 304 306 309 310 311 312 313 311 308 302 300 300 299 299 297 295 296 312 315 314 313 314 313 314 314 314 314 314 313 313 313 313 315 315 315 315 313 311 311
305 305 305 305 305 304 303 302 300 299 298 297 297 297 296 296 296 296 296 297 297 297 297 297 297 298 298 298 297 297 297 294 294 295 295 295 297 301 302 302 302 302 302 302 301 301 302 303 304 304 305 309 308 310 311 310 305 303 302 303 302 300 295 294 297 311 314 314 313 312 313 313 312 313 313 312 313 312 311 312 313 315 314 313 311
304 303 304 304 304 303 303 302 301 299 298 297 296 296 295 295 295 295 296 296 295 296 296 296 296 296 297 296 296 296 295 294 293 294 295 295 295 298 301 300 300 300 301 301 301 301 301 300 301 300 301 301 300 303 311 311 310 310 309 308 306 304 300 298 298 299 304 312 312 312 312 313 313 312 312 311 313 311 311 312 312 313 312 313 311
302 301 301 302 302 302 301 300 299 298 297 296 295 294 294 294 294 294 294 294 294 294 295 295 296 296 296 295 295 295 294 293 293 293 294 295 295 297 300 300 299 299 299 300 300 300 301 301 301 300 300 299 299 299 304 310 311 310 310 309 308 307 304 301 302 303 303 303 304 306 307 310 314 314 314 314 315 313 313 314 314 313 310 310 310
299 299 299 299 300 300 299 297 296 295 295 294 294 293 293 293 293 294 294 294 294 294 295 295 295 295 295 295 295 294 294 292 292 293 293 294 296 299 298 298 297 297 298 298 298 299 300 300 299 299 298 298 296 295 298 307 311 311 309 309 309 309 308 303 297 298 300 301 301 300 299 297 296 304 308 314 314 313 313 311 313 312 311 309 308
298 298 297 298 298 297 296 295 295 294 294 294 293 293 293 293 293 294 293 293 293 293 293 294 294 294 295 295 294 294 294 293 292 293 293 294 296 298 298 297 297 296 296 297 298 298 299 299 298 298 297 296 295 293 295 301 304 306 307 307 307 306 306 308 302 299 297 297 297 297 296 296 297 296 295 296 305 312 313 311 310 311 309 307 304
297 296 295 295 294 294 294 294 294 294 293 293 293 293 293 293 293 294 292 292 292 292 292 292 292 293 293 293 294 293 293 293 292 292 293 293 297 297 297 296 296 296 296 296 297 297 299 299 299 296 295 295 293 293 295 300 301 301 302 304 304 303 304 305 306 305 300 299 299 298 297 298 298 298 297 297 296 302 312 310 310 311 309 308 305
294 293 293 293 293 293 293 293 293 293 293 292 292 292 292 292 292 292 292 292 291 291 292 290 290 290 291 292 296 292 292 293 292 292 292 293 296 297 297 296 295 295 295 295 296 296 296 298 297 295 295 293 291 292 293 298 299 299 300 300 300 301 303 303 303 303 303 303 304 304 302 302 304 303 303 298 299 302 304 309 311 311 308 307 304
293 292 292 292 292 293 293 294 293 293 292 292 292 292 292 291 291 291 291 290 290 290 290 289 289 289 289 289 290 291 291 291 292 291 292 292 294 297 296 295 294 294 295 295 295 295 295 295 296 292 291 291 291 291 292 293 298 298 298 297 297 298 302 302 302 303 303 302 302 303 303 303 303 303 302 302 302 303 301 302 303 307 307 306 305
292 291 291 292 292 292 292 292 292 292 292 292 293 292 291 290 290 290 290 289 289 289 289 289 288 288 288 289 288 290 292 290 292 291 291 292 292 294 295 295 295 294 294 294 293 293 293 294 294 293 291 292 291 291 292 292 294 297 296 296 296 297 299 300 300 300 301 301 301 301 301 301 301 301 301 301 301 301 301 300 301 301 304 304 303
291 291 291 291 291 291 291 292 293 293 293 293 292 291 291 291 291 289 289 289 288 288 288 288 288 288 288 288 289 288 291 294 291 292 291 291 291 292 293 294 295 295 294 293 293 292 292 292 293 292 291 291 291 291 292 292 293 296 294 292 292 293 299 299 299 299 299 299 299 299 299 300 300 299 299 299 300 300 300 301 300 301 301 301 301
291 291 291 291 291 290 290 291 292 293 292 292 291 290 290 290 289 289 289 288 288 288 287 287 288 288 288 288 288 288 288 291 292 291 291 291 291 291 291 292 292 295 293 292 291 291 292 292 294 293 291 291 292 291 291 292 293 293 291 292 293 293 296 298 297 298 297 297 297 296 296 297 297 298 298 299 299 300 300 300 300 300 300 300 300
291 291 291 290 290 290 290 290 290 290 291 291 290 289 289 289 289 289 288 288 288 287 287 287 287 287 287 287 288 288 288 288 291 291 291 291 291 291 291 291 291 293 293 292 291 291 291 291 292 291 291 292 292 292 292 292 292 291 292 292 293 295 298 297 297 297 295 295 296 295 295 296 296 296 297 298 299 300 300 300 300 300 300 299 298
290 290 289 289 289 289 289 289 289 289 288 289 289 289 288 288 288 287 288 287 287 287 286 286 286 286 286 286 287 287 287 288 288 290 291 291 291 290 290 291 291 291 291 291 291 291 291 291 291 291 291 291 291 292 292 292 291 291 291 292 296 295 295 296 296 296 296 295 295 295 295 296 296 296 297 298 299 300 299 299 299 300 300 299 298
290 289 289 289 289 289 288 288 288 288 288 288 288 287 288 288 288 287 287 287 286 286 286 286 286 286 286 285 286 287 287 287 288 288 290 291 291 291 291 291 292 292 292 291 291 291 290 290 290 291 291 291 292 291 291 291 291 291 292 293 293 293 293 293 294 294 294 294 294 294 295 296 296 296 296 297 297 296 297 297 297 297 298 297 297
290 289 289 288 288 288 287 287 287 287 286 287 287 287 287 286 288 287 286 286 286 286 286 286 286 286 286 285 286 287 287 287 287 287 287 288 288 289 290 290 291 291 290 290 291 291 291 291 290 290 290 290 290 291 291 291 291 291 291 291 291 291 292 291 291 291 291 292 292 293 294 295 296 296 295 295 294 295 295 296 296 295 296 296 295
289 289 288 288 288 287 287 286 287 286 285 286 286 286 286 286 286 285 285 286 286 285 286 286 285 285 284 284 286 287 287 286 286 286 287 287 288 288 288 288 287 286 288 288 289 290 290 290 289 289 289 289 289 289 289 289 289 289 289 289 290 290 292 293 292 290 290 291 291 292 292 293 293 293 295 295 294 293 293 295 295 295 294 295 292
289 288 288 288 287 288 287 287 286 286 285 285 284 284 284 286 286 285 284 284 285 286 286 285 285 283 283 285 286 287 286 287 287 289 287 288 287 287 287 287 287 288 289 289 290 288 288 287 286 287 287 286 286 286 287 287 287 288 288 288 288 288 288 289 288 288 287 289 289 289 289 290 290 291 292 294 293 293 292 294 295 294 294 294 292
289 288 287 287 287 287 287 286 286 287 286 286 286 287 287 289 287 286 285 289 289 289 288 285 285 285 286 284 284 285 286 286 289 289 289 289 289 289 289 289 289 289 289 289 288 285 285 285 284 284 285 285 285 285 285 285 286 286 287 288 287 287 287 287 287 287 286 287 288 287 287 287 288 288 289 289 291 291 291 291 294 294 291 290 289
288 287 287 286 287 287 286 286 286 286 286 285 286 286 286 288 288 289 289 289 289 289 289 289 289 289 289 286 287 289 289 289 289 289 289 289 289 289 289 289 289 288 288 287 285 284 284 284 284 284 284 284 284 284 285 285 285 285 286 287 286 286 285 286 286 285 285 285 286 285 285 285 285 285 286 286 287 289 290 291 293 293 292 290 289
288 287 287 286 287 286 285 286 286 286 284 285 286 286 286 286 287 289 289 289 289 289 289 289 289 289 289 289 289 287 289 289 289 289 289 289 289 289 289 289 288 288 288 288 285 284 283 283 283 283 284 284 284 284 284 284 284 284 285 285 285 285 285 285 286 285 284 285 285 285 284 284 284 284 284 285 286 287 287 287 288 288 289 289 289
288 287 287 287 286 286 286 286 286 287 286 285 285 285 285 284 285 285 288 289 289 289 289 289 289 289 289 289 289 288 288 289 289 289 289 289 289 289 289 289 288 288 288 285 284 284 283 283 283 283 283 284 285 285 285 284 284 284 284 284 284 285 286 287 285 284 283 283 283 284 284 283 283 284 284 284 285 285 286 286 287 288 288 287 286
289 288 288 287 287 287 287 287 287 285 285 284 283 284 282 285 283 284 285 284 288 289 289 289 289 289 289 289 289 289 289 289 289 289 289 288 288 288 288 287 289 288 287 283 284 283 283 283 283 283 283 284 285 286 286 285 285 285 285 284 284 285 286 287 285 284 283 283 283 283 283 283 283 283 283 283 284 285 286 286 286 286 286 286 286
289 287 286 286 287 287 286 285 284 284 284 284 283 283 283 282 282 284 284 284 284 283 284 286 287 289 287 288 289 289 289 289 289 289 288 288 288 288 287 284 284 283 284 283 283 283 283 282 282 282 282 283 284 285 285 285 285 285 285 285 284 284 285 285 284 284 284 284 284 283 282 282 282 282 282 282 283 284 284 285 286 286 286 286 286
289 287 288 288 287 286 286 287 285 286 285 284 283 283 282 282 283 283 282 284 284 283 284 284 284 288 289 289 288 288 288 288 288 288 288 287 287 287 283 283 282 282 281 282 282 283 281 281 282 282 282 282 283 283 284 284 284 284 285 284 284 284 284 284 284 284 285 284 284 285 285 284 283 283 282 283 282 282 283 284 285 286 286 285 285
288 287 286 287 286 287 286 285 285 286 285 283 283 283 282 282 282 282 282 283 282 282 284 284 284 287 287 286 287 288 288 288 288 288 287 287 286 284 282 281 281 282 281 281 281 281 282 281 281 282 282 281 281 281 283 282 283 284 285 285 285 286 285 284 284 284 284 284 284 284 284 284 284 285 284 284 284 283 283 283 284 285 285 285 285
288 287 287 286 286 286 286 286 284 284 284 284 283 283 282 282 282 282 283 283 282 282 282 283 286 284 284 285 292 285 283 287 288 287 286 285 282 282 282 280 280 281 281 280 280 280 280 280 280 280 280 280 280 281 281 281 281 281 282 283 284 284 286 285 285 285 285 284 284 284 284 284 284 284 284 283 284 284 284 283 283 284 284 284 284
287 285 285 285 285 286 285 284 284 285 284 284 283 283 283 282 282 282 281 281 281 281 280 281 281 282 284 283 282 285 284 281 278 280 279 279 279 279 280 280 281 281 280 280 280 280 280 280 280 279 279 280 280 279 280 281 281 281 281 282 283 283 283 283 283 284 284 284 284 284 284 284 284 283 282 280 280 280 281 282 283 284 284 284 283
286 285 285 284 285 285 285 284 284 285 283 285 283 282 282 282 283 282 281 281 281 280 280 281 282 282 283 282 283 282 281 279 280 279 280 280 280 281 280 281 281 281 281 281 280 280 280 279 279 279 279 278 278 278 279 280 278 279 280 281 281 282 282 282 282 282 282 283 284 285 285 284 284 283 282 282 282 281 282 281 281 282 283 282 281
286 285 284 285 285 285 284 284 285 284 284 284 284 283 284 283 283 282 281 281 280 280 281 281 282 283 282 282 285 283 281 282 281 280 279 280 279 281 282 281 280 281 280 280 281 281 281 280 279 277 276 276 277 275 277 278 278 278 278 278 278 279 279 280 281 281 281 282 284 285 285 285 285 284 284 283 284 283 281 281 279 279 280 280 279
286 285 285 284 285 285 284 284 284 284 284 284 284 284 284 283 282 282 282 281 280 280 280 281 279 279 281 286 286 285 282 280 280 280 281 280 279 280 279 279 279 280 280 281 280 278 279 279 278 276 275 274 274 275 275 275 275 275 276 276 276 275 277 277 278 279 278 279 281 282 282 283 284 284 284 285 282 282 280 277 277 277 278 278 279
287 286 286 285 285 285 285 284 283 284 284 284 283 284 283 283 283 283 282 282 282 281 280 282 282 281 281 283 285 285 281 280 282 281 281 280 280 279 280 280 281 280 280 280 279 279 276 276 277 276 276 276 274 273 276 277 275 274 273 274 273 273 272 274 275 276 276 277 279 280 281 282 283 284 284 284 282 281 279 277 277 276 276 276 278
286 286 286 286 286 285 285 284 285 284 284 284 284 282 282 283 283 283 283 282 282 283 282 283 282 281 281 282 283 283 282 281 281 281 281 280 281 279 280 280 280 280 280 279 278 277 275 274 275 274 275 275 275 277 274 272 272 274 273 272 273 275 271 271 272 273 274 274 277 278 279 280 282 282 282 282 281 280 279 277 276 276 276 275 277
286 286 286 285 284 285 285 283 285 286 284 283 282 282 282 282 282 282 281 282 282 282 282 281 280 281 281 281 282 283 283 282 281 280 280 280 281 282 281 279 279 279 279 280 277 278 276 275 275 276 278 275 276 275 275 275 275 272 271 272 272 272 270 270 271 271 271 272 274 275 277 278 278 279 280 280 280 278 276 276 277 280 277 277 277
286 286 286 285 285 284 284 284 283 284 283 283 283 284 284 282 282 281 281 281 281 281 281 281 280 281 281 281 280 281 281 281 281 282 281 280 281 281 280 280 279 280 279 280 277 278 276 275 274 276 276 275 275 274 275 276 276 276 276 273 273 272 272 271 270 271 271 271 272 273 275 277 276 278 280 278 277 276 276 276 276 277 277 277 277
287 286 286 285 286 286 287 285 283 283 283 282 282 284 283 284 282 281 281 281 280 280 281 281 282 282 282 281 281 284 283 282 282 281 283 284 283 282 282 280 279 278 279 280 277 278 277 278 275 275 275 273 273 275 276 275 274 274 275 275 273 273 271 269 272 272 271 271 272 271 272 273 275 276 278 278 277 277 277 277 277 277 277 277 277
287 286 285 285 286 285 286 283 285 284 283 283 283 283 283 283 283 283 282 282 282 282 282 282 283 282 282 282 282 282 282 281 281 283 282 281 282 282 281 280 280 281 280 280 279 278 278 277 277 275 275 275 276 275 275 275 275 275 274 273 273 272 271 273 273 274 272 271 271 272 271 271 273 274 276 277 275 276 276 277 278 277 277 276 277
288 287 285 285 285 286 285 284 285 284 284 285 283 282 282 284 283 283 283 282 283 284 284 283 283 283 283 284 283 282 281 281 282 282 283 283 282 281 279 280 281 281 278 280 281 280 278 279 278 278 277 277 277 276 277 275 275 275 274 273 272 272 272 272 272 271 274 271 270 270 270 271 271 274 275 275 277 275 275 276 276 277 276 276 276
286 287 287 286 286 286 285 285 284 284 284 283 283 284 283 283 283 283 283 283 282 283 283 283 284 284 283 283 283 283 283 283 284 283 283 283 281 281 280 280 280 280 280 281 282 279 278 278 278 277 278 278 277 276 276 275 275 275 273 271 272 272 271 271 272 272 271 269 271 271 272 271 271 272 272 273 274 274 276 276 276 278 276 275 275
285 285 286 286 287 286 284 284 283 283 284 283 283 284 283 283 283 283 284 284 284 284 284 283 284 283 283 283 283 283 283 284 283 283 283 283 283 282 284 282 283 280 280 279 280 279 279 279 278 278 279 279 279 279 277 277 274 272 273 272 272 272 271 271 270 271 271 270 270 272 272 273 272 274 276 275 276 274 277 277 277 276 276 276 276
Wind_Speed
5 4 4 5 7 8 8 7 8 6 7 7 7 7 7 7 7 7 8 9 9 9 9 10 9 9 10 10 10 10 10 10 10 9 6 7 6 4 5 5 5 4 4 6 5 4 3 2 1 3 3 4 4 4 6 6 6 6 6 6 7 6 6 6 6 6 1 1 4 6 6 7 7 10 9 7 8 10 10 10 10 9 9 8 9
5 4 4 5 8 7 7 6 6 6 6 7 7 7 7 7 7 8 9 8 9 9 10 9 9 10 9 10 10 10 10 9 9 9 9 9 8 5 4 5 5 5 5 6 7 6 4 4 3 2 3 4 2 3 2 4 6 6 6 6 6 6 5 6 6 3 4 1 2 3 6 9 9 8 10 9 10 9 10 8 9 11 10 8 7
3 4 4 5 6 6 6 6 6 6 7 7 8 8 7 8 8 8 8 8 9 8 9 9 10 10 10 9 9 9 9 9 8 8 8 10 10 8 6 5 5 5 5 6 5 6 6 4 5 5 3 3 1 1 0 3 4 7 8 6 7 7 6 6 5 6 6 3 3 6 7 8 9 9 10 10 9 10 10 8 8 7 7 8 8
4 5 6 7 6 7 8 7 7 7 7 6 8 8 7 7 7 8 8 8 9 8 9 9 9 9 9 9 10 9 10 9 9 8 8 8 9 9 8 6 5 4 5 5 5 5 4 3 2 2 3 2 2 2 2 2 3 3 3 3 5 5 4 3 5 4 3 5 6 7 6 7 7 8 8 6 8 8 8 6 6 5 6 5 7
6 7 7 8 8 8 8 7 7 8 8 7 9 8 8 7 8 9 9 9 8 8 8 8 8 9 9 10 10 10 10 10 10 9 9 8 8 8 7 6 6 7 7 8 9 7 5 6 5 4 2 3 2 1 3 3 2 3 6 5 3 4 4 6 5 3 4 6 4 3 2 3 4 6 8 8 7 7 6 7 8 9 8 7 6
6 7 7 8 8 8 7 8 8 8 8 8 8 8 8 9 8 8 8 9 8 8 8 8 9 9 9 9 8 9 10 10 10 9 10 10 10 10 9 9 9 9 9 9 9 9 9 9 9 7 6 5 4 3 1 3 3 3 1 2 4 4 6 7 6 5 4 4 5 4 3 4 2 3 8 8 8 8 7 6 7 7 7 6 5
6 6 7 8 7 7 8 8 8 8 8 8 7 8 8 8 9 9 8 8 9 8 9 10 9 9 9 9 11 11 11 10 12 11 10 10 10 11 11 11 10 9 10 10 10 9 10 10 10 10 8 6 5 5 2 1 2 2 3 3 4 4 4 4 5 6 5 4 3 3 4 3 3 4 3 5 6 5 7 7 6 6 7 8 7
7 8 8 8 8 9 8 8 7 7 7 8 8 8 8 9 9 8 8 9 9 10 10 10 8 9 9 10 10 9 11 12 12 11 10 10 10 11 11 11 11 11 11 11 11 11 11 10 10 10 8 9 9 5 2 2 1 1 0 2 3 3 4 3 1 3 3 3 4 3 3 3 3 3 5 6 5 2 6 8 9 8 7 6 6
8 8 8 8 8 7 7 7 7 7 8 8 9 9 8 7 7 7 8 8 8 8 8 7 10 9 10 10 11 10 12 10 7 11 9 11 11 12 11 13 12 12 12 11 11 11 10 10 10 10 11 14 15 12 12 9 3 2 1 1 2 3 2 2 3 3 3 3 3 3 5 5 4 6 7 8 11 12 9 7 6 6 7 6 4
8 8 8 8 7 7 7 7 7 8 9 9 8 7 7 7 7 8 8 8 8 7 9 8 9 10 10 10 10 9 9 7 15 23 19 11 11 10 11 12 12 12 12 11 11 11 11 10 10 18 14 13 15 15 15 14 13 8 5 3 2 2 1 2 3 3 3 4 4 5 6 7 7 7 8 8 4 4 7 7 7 6 7 6 4
7 7 8 7 7 7 8 8 8 8 7 7 6 7 7 6 7 8 8 8 8 9 8 10 10 9 11 10 11 9 8 9 20 18 19 18 12 11 11 10 11 11 11 12 12 12 11 12 11 14 14 12 10 13 13 15 14 13 13 12 8 3 2 3 3 2 3 4 4 5 6 7 8 7 8 6 7 9 9 8 7 7 9 9 6
7 8 7 7 8 8 7 7 7 7 7 7 7 7 6 7 8 7 8 9 9 8 10 10 10 10 10 11 12 12 9 17 18 18 17 17 14 10 10 10 10 10 12 12 10 11 11 11 13 11 12 16 12 10 11 14 14 15 16 15 16 14 11 2 2 2 3 4 4 6 5 7 7 6 5 6 7 6 7 8 9 9 8 8 6
7 7 7 7 7 7 6 7 7 7 7 6 6 6 7 8 8 9 10 7 7 11 10 11 11 10 11 12 12 12 11 19 18 17 16 16 16 12 10 11 10 12 13 13 13 12 11 10 10 11 10 22 15 11 9 9 11 17 17 17 16 18 16 17 14 6 2 4 4 4 5 2 4 6 3 5 6 8 5 5 6 8 8 8 6
7 7 7 7 7 6 7 8 8 7 6 6 6 7 8 9 8 7 6 7 9 10 11 12 11 11 11 10 10 11 13 15 19 18 16 16 15 12 9 10 11 12 13 13 13 13 12 10 10 12 10 12 13 14 10 9 9 11 12 12 13 16 18 18 16 17 13 6 4 3 1 1 5 1 2 5 8 8 8 7 6 6 8 9 4
7 6 6 6 6 6 7 7 8 7 6 6 7 8 8 7 8 7 7 8 9 10 10 11 10 10 10 9 9 11 12 20 19 19 18 16 14 11 9 9 10 11 12 13 14 14 13 12 11 11 12 12 12 16 12 9 9 10 10 11 11 11 14 14 12 10 9 10 10 9 8 8 4 4 5 5 7 6 9 10 9 5 4 5 5
7 6 7 6 7 7 7 7 7 6 6 6 8 8 8 7 7 6 7 8 7 8 9 9 10 10 10 10 10 13 13 21 20 20 19 16 14 9 9 10 11 11 12 13 14 13 13 13 13 14 15 16 20 23 20 12 9 9 10 9 9 9 10 7 9 12 10 9 9 7 6 7 10 9 6 1 3 6 6 7 7 7 7 5 5
7 7 7 7 7 6 5 6 6 6 6 7 8 8 7 7 7 5 8 8 9 10 9 9 8 10 11 11 12 11 12 18 20 20 19 18 12 10 10 10 11 12 12 11 12 14 15 15 13 14 15 16 20 23 21 17 13 12 10 10 9 10 11 9 12 14 15 16 17 19 18 17 17 18 17 15 7 3 7 7 7 7 7 6 3
6 6 6 5 5 5 4 5 5 5 6 8 7 6 6 6 6 6 8 8 10 8 6 8 9 9 10 11 10 10 11 17 21 20 20 19 13 10 9 10 11 11 10 11 10 11 15 24 19 13 15 14 20 22 21 17 13 11 12 11 12 12 12 10 9 10 14 14 15 16 18 18 17 17 18 17 16 10 2 5 5 7 8 8 7
5 5 5 5 5 5 5 6 5 6 6 6 5 6 6 6 5 6 7 7 7 6 7 8 8 9 9 9 14 12 10 13 19 19 20 19 13 9 9 9 11 10 9 10 9 10 11 13 21 17 13 16 22 21 21 17 13 10 11 13 12 14 11 10 11 11 11 12 12 12 13 15 13 12 13 18 19 14 8 5 3 5 7 6 6
4 5 5 6 5 6 6 7 6 6 7 6 6 6 4 6 7 7 6 6 6 6 7 8 9 8 8 9 10 10 10 10 14 19 18 18 17 10 8 10 10 10 9 9 10 10 10 10 13 19 19 20 20 21 20 19 13 13 13 14 13 14 9 9 11 9 9 9 9 9 9 9 11 12 13 14 13 12 11 9 8 6 2 1 6
5 6 6 7 7 7 6 6 7 6 6 6 5 6 6 6 6 7 7 6 7 8 8 7 8 8 8 8 8 9 9 9 11 17 17 17 16 12 9 10 8 8 8 10 9 10 10 10 9 15 18 19 19 19 19 19 16 12 12 11 9 8 10 11 12 12 10 10 10 10 10 10 10 10 10 11 11 10 10 11 11 10 8 4 3
6 7 8 7 7 7 6 6 6 6 6 6 8 8 6 6 6 6 6 7 8 8 6 7 7 8 8 8 8 8 9 13 9 14 17 17 17 16 10 9 8 8 10 9 9 9 9 8 8 13 17 17 18 18 19 17 18 12 13 14 15 16 12 9 10 10 10 10 10 11 11 11 10 10 10 10 10 10 10 10 11 11 10 9 7
7 7 8 8 7 7 6 7 6 6 6 6 7 8 6 7 6 6 6 7 8 8 7 6 7 8 8 8 7 8 8 8 14 11 15 17 17 16 15 10 12 9 9 9 9 8 7 8 9 15 16 17 17 17 18 18 14 13 17 17 16 15 12 9 9 10 10 10 11 11 11 10 11 10 10 10 9 9 9 10 10 10 10 10 10
8 8 8 7 7 7 7 7 6 6 6 6 7 8 7 6 7 6 6 7 7 8 7 7 7 8 8 8 8 7 7 7 10 14 13 16 16 16 16 15 13 8 8 7 7 7 8 8 11 17 17 17 17 16 17 17 14 18 17 17 15 13 10 10 9 9 9 11 11 10 10 8 8 9 8 7 7 8 8 8 8 9 9 9 11
9 8 8 7 7 6 7 7 7 6 6 6 8 7 6 5 8 6 6 7 7 7 7 6 7 6 7 7 7 8 8 8 8 11 15 14 15 15 15 16 15 13 10 7 6 8 11 15 16 16 17 16 17 15 14 16 19 17 17 17 14 10 10 9 9 9 10 10 9 9 9 9 7 6 6 7 8 9 6 7 8 8 7 8 10
9 8 8 7 7 7 9 8 7 7 7 6 6 5 5 6 7 6 7 7 6 7 6 6 6 6 7 7 7 7 7 7 8 8 9 10 11 15 15 15 15 14 12 11 14 16 16 15 17 16 14 14 12 10 9 11 16 17 17 15 9 9 8 8 9 9 8 8 8 8 7 7 7 6 7 8 8 8 7 7 7 8 8 9 10
9 8 8 7 6 7 8 7 7 7 6 6 6 6 6 6 7 7 7 7 6 6 6 6 7 7 7 6 6 6 7 7 7 7 7 8 7 8 9 10 12 11 9 9 10 10 12 12 12 14 13 16 15 13 12 12 12 11 10 10 9 9 8 7 7 7 7 7 7 7 6 7 7 9 8 8 8 7 6 5 5 5 6 6 8
10 8 8 6 6 6 7 8 9 7 6 6 7 6 6 5 7 6 6 6 7 6 6 6 6 6 6 6 6 7 7 6 7 7 7 7 7 7 7 7 7 7 8 8 8 9 9 11 13 10 11 11 11 10 10 9 9 9 9 9 9 9 10 11 10 8 6 5 6 6 7 7 7 7 8 7 6 7 7 5 4 6 5 4 4
9 8 6 7 6 5 6 6 7 7 7 6 5 4 6 6 6 5 2 0 1 4 6 4 3 3 4 5 7 7 6 6 4 3 5 7 7 7 7 7 6 7 9 11 8 8 8 10 10 11 10 10 10 10 10 10 10 9 9 9 9 9 8 7 8 8 6 7 8 7 7 7 8 7 7 8 8 7 7 6 5 5 5 7 7
8 7 6 6 6 6 6 6 6 7 7 7 7 6 4 5 4 6 5 5 6 6 5 3 2 4 7 4 1 4 6 0 1 9 11 11 11 11 10 11 10 9 11 12 7 7 8 9 9 9 9 9 9 9 9 9 9 9 9 9 9 9 8 7 7 7 6 6 6 7 7 7 7 7 7 7 7 7 7 5 5 5 5 6 7
7 7 6 6 6 6 6 6 5 6 6 6 6 7 7 6 7 7 6 6 8 9 8 7 8 7 7 6 4 5 3 6 12 11 12 12 12 13 13 12 12 12 11 8 9 9 8 9 8 9 9 8 8 8 8 8 8 8 9 8 8 9 8 8 8 7 7 7 7 6 5 6 6 5 6 6 6 7 7 5 6 6 6 6 7
8 7 6 5 5 5 5 5 5 6 5 5 6 7 7 7 5 7 7 7 7 8 9 9 9 8 6 6 6 5 10 12 11 11 11 11 12 13 13 13 12 12 11 7 9 8 7 8 8 8 8 9 8 7 8 8 8 8 8 9 9 8 8 8 7 6 7 7 7 7 7 6 6 5 5 6 5 7 7 6 6 6 6 6 6
8 6 6 5 5 5 5 6 5 6 6 5 5 4 6 7 7 5 5 6 10 11 11 10 11 10 11 11 9 8 7 9 11 10 10 10 11 11 13 14 13 11 10 10 8 8 7 7 7 7 8 8 8 7 7 7 7 7 7 7 8 8 8 7 5 8 7 6 6 7 6 6 6 6 6 6 6 6 6 6 5 5 5 6 5
9 8 7 6 6 6 6 5 5 4 3 3 4 4 3 4 5 5 7 6 7 8 10 10 9 10 9 8 9 9 9 10 9 9 10 11 11 11 9 6 9 11 10 8 8 7 7 7 7 7 7 7 7 7 7 8 7 7 7 8 7 7 8 8 9 9 7 7 7 6 6 6 5 6 6 5 6 6 6 6 5 6 6 6 5
7 8 10 8 6 6 5 5 4 4 3 3 3 3 3 2 3 6 6 6 5 5 3 5 7 7 6 6 8 9 9 10 9 9 9 9 10 11 11 8 8 8 8 7 6 6 7 6 6 6 6 6 6 6 7 7 7 7 7 7 7 8 8 8 8 7 8 7 8 7 6 6 6 6 5 6 6 7 5 6 6 5 4 6 5
7 6 6 7 6 6 6 5 4 5 5 3 2 3 3 3 5 5 4 4 6 4 2 1 1 2 7 7 8 8 9 10 10 10 10 10 8 6 6 7 7 6 6 6 6 6 5 5 6 6 6 6 6 6 6 6 6 6 6 6 6 6 7 8 8 8 7 7 7 8 7 7 7 6 5 6 6 5 5 5 5 5 5 5 4
7 7 7 6 7 6 5 4 4 4 4 3 3 2 2 3 3 3 3 4 3 2 3 2 2 4 5 4 4 7 8 8 9 9 9 8 7 6 6 6 6 4 5 6 5 5 6 5 4 5 5 5 5 5 5 6 6 6 6 6 6 7 7 6 6 7 8 8 8 7 7 6 6 6 5 4 5 5 5 5 5 5 4 3 2
8 7 7 6 5 5 5 5 5 5 4 4 3 3 3 3 3 4 4 4 3 4 3 2 3 4 4 1 4 3 3 6 8 8 7 8 7 5 5 5 4 5 4 4 3 3 4 3 3 4 3 4 5 5 6 5 5 5 6 5 5 4 6 6 9 9 9 8 8 7 7 7 6 6 5 4 3 3 4 3 4 5 3 4 3
6 8 10 10 7 7 6 6 6 6 4 4 4 4 4 4 3 3 3 3 3 3 2 2 2 3 2 1 1 2 4 4 3 2 1 2 2 2 3 3 3 3 3 2 3 3 4 4 4 3 4 4 4 4 4 5 5 5 5 5 7 7 9 8 8 7 8 8 7 7 7 6 6 6 5 4 4 3 1 2 2 3 4 2 2
7 6 8 9 7 7 7 6 6 6 5 6 4 3 3 4 4 5 4 3 3 2 2 3 2 2 2 0 1 3 4 1 1 1 0 1 1 1 1 3 2 2 2 2 2 2 3 3 3 4 4 4 4 3 3 3 3 3 4 5 6 6 6 6 6 6 6 6 7 7 7 8 7 5 5 6 6 4 3 3 3 3 3 3 3
7 6 6 6 7 7 6 7 7 7 7 6 6 5 6 6 5 4 3 3 2 2 2 2 2 1 1 1 2 3 5 4 2 2 2 1 1 1 0 0 1 0 0 1 0 0 0 2 3 3 3 4 3 2 2 3 2 4 4 4 4 4 5 5 6 6 6 6 6 7 7 7 7 7 7 6 4 4 4 2 3 3 2 2 2
7 6 5 5 6 7 7 6 6 7 7 7 6 7 6 4 4 4 4 4 4 3 2 3 3 3 2 2 2 5 3 2 2 2 2 2 2 2 2 2 2 2 1 1 1 1 0 0 1 1 3 3 4 3 2 4 3 3 3 3 4 4 5 6 5 5 5 5 5 5 6 6 6 5 5 4 5 4 5 3 3 2 2 2 3
7 7 6 6 6 7 7 7 6 6 7 7 7 6 5 5 5 4 5 4 4 4 4 4 4 3 2 3 1 4 3 3 4 3 3 3 3 3 3 4 4 4 3 2 2 1 1 1 0 0 1 1 1 1 1 1 1 2 2 3 3 4 4 5 5 6 6 6 6 5 5 6 6 6 6 6 5 4 4 3 1 3 3 2 3
7 6 6 6 6 5 5 7 7 7 7 7 6 5 5 5 4 4 5 6 5 5 6 6 4 3 3 1 0 1 2 3 3 4 4 4 4 4 5 4 4 4 4 3 3 2 2 1 1 1 1 2 2 1 2 1 1 1 2 2 3 4 4 4 5 5 6 6 6 6 6 5 6 6 6 6 5 6 5 4 2 2 2 2 2
6 7 6 5 4 5 5 4 7 7 5 4 4 4 4 4 5 5 5 5 5 5 5 5 3 4 4 3 3 4 4 4 4 4 4 5 5 6 5 4 4 4 4 6 3 2 3 2 1 0 0 1 2 2 2 2 1 1 1 1 2 4 4 3 3 3 3 4 5 5 6 6 5 6 6 6 5 4 4 2 1 2 1 1 1
6 6 5 5 4 4 4 4 4 5 6 6 5 5 5 4 4 4 3 4 4 4 5 5 4 4 4 4 4 4 4 3 4 4 4 4 5 6 5 6 4 5 5 5 3 3 4 3 3 2 2 2 2 3 2 3 2 2 2 1 0 1 2 2 1 1 2 2 4 5 5 5 4 4 5 6 6 4 3 3 1 0 0 1 1
5 5 6 5 6 7 6 5 6 5 4 4 4 5 6 5 5 4 4 4 4 3 3 5 6 6 5 4 4 6 5 4 5 4 6 6 6 6 5 4 4 4 6 5 4 4 4 5 4 4 3 3 3 3 3 3 3 2 1 1 1 1 1 1 1 1 1 2 1 2 4 4 5 5 6 5 5 6 5 5 2 2 0 0 0
6 5 5 5 5 5 5 4 6 4 4 4 5 5 5 5 5 5 4 5 3 3 3 4 5 5 4 4 4 4 5 4 4 4 4 4 6 5 4 4 5 7 5 5 4 5 5 4 4 4 4 4 4 5 4 3 3 2 2 2 2 1 1 2 1 1 1 1 1 2 2 3 5 4 4 4 4 4 5 6 5 3 2 1 1
7 7 6 6 6 6 6 7 6 5 7 7 5 4 5 5 7 5 5 6 5 5 5 7 6 4 4 5 4 4 3 3 4 5 5 6 6 4 4 4 4 5 4 5 5 4 4 5 4 6 5 5 5 5 6 4 4 3 3 3 3 4 4 4 2 1 2 1 1 1 2 2 4 4 4 4 5 3 2 3 3 4 4 2 1
7 7 7 7 7 7 7 6 5 5 5 6 7 6 5 5 5 6 6 5 4 5 7 5 5 6 6 5 4 5 4 5 6 5 5 6 5 4 4 4 4 4 4 5 6 5 4 4 4 5 5 6 5 6 6 5 4 5 4 3 6 6 5 5 4 3 1 0 0 1 1 1 2 3 3 3 4 4 5 4 4 4 3 3 3
7 7 7 7 7 7 6 6 5 5 5 6 7 6 6 7 7 6 7 6 7 7 7 7 7 5 6 7 6 5 6 6 7 6 6 6 6 5 5 5 5 5 4 4 6 5 5 5 5 5 5 6 6 6 6 5 5 5 5 6 6 7 7 6 3 4 4 2 0 0 1 1 3 4 5 5 5 4 5 4 3 3 3 3 2
Wind_Direction
70 54 45 48 54 52 45 38 33 27 23 23 28 24 16 15 10 10 20 18 6 9 2 357 355 351 349 351 355 353 349 343 340 333 326 325 326 325 325 317 302 312 334 352 356 358 360 338 295 244 258 254 222 211 214 206 195 185 191 196 201 192 191 206 219 236 267 193 177 184 179 171 189 192 189 170 166 181 186 188 179 181 185 182 183
68 63 57 56 62 57 49 42 34 27 30 23 30 23 17 12 9 18 26 14 15 11 2 359 358 358 356 354 355 354 350 343 340 338 338 337 334 337 346 336 337 341 357 1 359 353 353 346 329 306 266 270 249 230 206 196 189 182 182 184 186 190 185 178 211 232 227 124 168 160 175 175 195 191 192 159 172 177 193 169 184 184 181 175 174
81 78 69 62 62 57 50 40 31 31 33 30 27 21 17 14 16 20 21 17 18 17 4 0 4 4 4 358 354 352 349 345 338 343 340 339 336 334 341 354 353 351 354 357 351 339 348 358 352 336 304 271 315 359 296 204 193 193 187 179 184 201 192 193 187 211 220 209 176 190 196 190 195 185 193 193 172 169 178 170 175 171 173 176 175
79 69 66 63 60 57 49 39 37 32 32 28 29 22 18 18 15 19 15 14 14 9 8 7 8 6 2 2 3 353 349 346 342 346 337 330 332 332 333 344 357 358 360 353 353 352 335 339 332 335 343 356 8 11 317 309 221 171 150 191 202 182 170 189 202 200 182 175 202 197 193 177 195 186 191 119 146 174 182 159 162 127 156 162 177
69 63 62 60 53 53 48 42 39 33 29 27 27 26 22 19 19 21 13 12 2 2 4 11 9 6 4 3 3 358 356 350 348 348 347 344 343 343 341 345 359 9 11 10 8 347 342 337 332 338 344 354 339 338 317 282 262 186 177 180 170 153 165 192 194 174 171 201 189 198 168 209 198 171 152 158 159 171 148 157 138 163 173 178 167
69 68 63 64 59 54 51 47 41 36 31 30 24 25 26 26 24 25 20 17 0 359 1 7 8 4 2 3 358 1 0 358 353 355 1 4 7 8 12 16 17 23 26 26 23 17 12 2 352 345 349 345 331 325 267 238 236 271 184 134 163 170 197 188 179 178 174 199 184 177 138 184 123 192 174 167 160 158 150 143 149 151 140 133 176
72 70 66 64 62 57 53 50 45 41 35 28 28 29 32 28 28 25 20 21 15 3 8 13 7 4 1 2 5 7 5 5 7 3 6 16 21 24 20 15 18 22 19 20 20 19 16 11 6 359 350 336 329 315 285 266 248 180 145 151 163 180 195 209 189 190 185 186 205 171 162 176 153 177 163 142 133 160 144 141 151 153 154 159 158
71 66 63 61 63 61 56 55 52 43 35 35 36 40 39 36 35 30 26 27 20 10 13 15 5 13 10 18 14 12 13 14 8 1 11 20 23 27 25 22 19 17 16 15 15 15 15 12 10 11 3 358 348 326 325 265 286 328 359 147 162 184 196 166 189 196 186 194 183 180 173 159 207 64 101 104 123 164 184 167 170 163 155 153 155
72 68 66 64 59 61 62 57 54 47 42 43 44 40 38 35 33 32 34 33 28 19 13 10 19 17 18 18 15 18 24 13 1 8 2 21 26 28 25 23 19 16 12 10 8 9 12 14 12 22 24 22 21 11 359 352 341 285 267 180 213 212 189 178 197 181 213 195 175 150 171 196 178 155 160 167 182 187 174 172 171 153 140 126 111
75 75 73 71 68 65 65 63 57 53 46 44 41 37 36 33 35 36 36 34 30 21 31 22 25 22 18 14 18 22 18 12 18 26 26 30 32 31 31 27 24 22 16 9 7 6 6 12 12 19 22 25 25 23 21 15 17 20 355 294 253 204 163 203 200 208 198 206 198 172 178 205 195 188 185 194 171 132 158 162 158 152 137 128 96
73 76 74 69 70 67 64 62 57 53 47 44 38 38 36 36 37 36 35 33 33 33 33 31 27 23 25 22 22 25 21 12 16 26 27 29 38 39 35 28 23 23 21 18 14 6 4 9 9 14 19 22 22 22 26 28 33 34 35 36 32 3 222 185 222 195 186 212 207 199 198 200 211 200 200 173 172 174 170 168 158 152 163 160 164
77 76 75 74 72 71 69 70 65 57 53 48 44 42 39 41 41 36 37 34 29 32 38 35 34 30 30 32 31 25 21 10 17 22 26 29 34 41 35 30 25 26 26 22 16 15 10 11 13 8 13 16 16 15 14 23 30 35 34 32 25 19 21 8 226 198 176 215 217 210 206 217 213 201 195 165 172 167 179 160 162 173 162 174 171
77 76 72 70 71 71 74 74 69 63 56 51 48 48 46 47 41 37 37 28 31 40 34 36 34 31 33 33 29 22 23 9 13 16 22 30 34 44 42 39 34 32 31 30 28 24 17 15 12 12 9 13 11 4 22 18 26 38 38 29 28 28 24 21 19 18 209 213 236 241 234 276 253 230 200 167 159 167 137 157 167 174 174 182 183
75 74 71 70 70 65 66 71 70 66 60 55 53 52 51 48 42 36 36 34 41 40 36 38 35 33 33 35 32 26 27 6 13 13 17 24 29 39 44 44 45 41 37 34 31 29 27 23 18 13 1 6 9 2 5 24 33 43 41 38 32 23 24 27 24 22 19 8 358 303 354 152 244 272 104 151 166 177 171 174 160 171 180 193 166
78 73 71 68 69 67 65 65 67 63 58 55 55 53 49 46 42 32 36 39 40 40 34 37 35 35 33 31 38 35 25 14 17 18 17 19 19 35 36 39 42 41 38 37 34 32 29 29 27 21 15 13 9 14 4 3 28 40 42 42 41 36 33 24 21 21 21 22 18 9 349 343 340 119 163 190 197 166 175 175 171 158 102 67 76
80 75 73 69 69 66 67 67 65 61 59 57 57 54 50 44 42 29 44 45 45 45 41 40 36 34 33 33 39 37 25 18 20 21 19 16 23 34 33 37 40 37 35 32 34 30 28 29 33 32 30 25 17 20 14 7 18 32 41 39 35 36 43 42 32 39 47 51 46 33 9 11 22 16 6 56 110 110 85 76 91 115 137 142 141
82 78 74 68 65 60 62 71 70 66 62 63 59 54 52 44 42 31 54 48 47 43 41 38 32 33 33 34 36 36 30 19 22 22 20 17 30 35 34 37 38 39 34 28 30 34 33 27 27 29 31 28 25 28 21 23 25 21 26 34 33 35 26 8 13 26 29 36 41 38 31 29 34 32 24 16 20 83 118 114 148 149 144 153 135
80 78 73 68 65 63 62 66 70 64 62 63 62 59 56 52 50 36 55 53 50 41 37 44 37 34 34 35 31 37 32 22 23 24 24 20 28 35 34 41 41 37 35 32 31 33 30 29 29 28 28 21 25 34 29 30 28 21 21 26 32 34 23 9 14 18 21 29 28 36 39 28 25 33 27 22 18 8 98 177 166 151 169 168 166
81 83 79 75 69 68 68 67 68 68 66 62 63 66 57 56 48 48 52 56 55 47 44 47 43 36 32 32 31 36 30 24 23 26 28 25 27 32 31 39 42 32 30 31 30 33 26 26 26 24 25 22 26 28 30 37 37 21 24 29 27 29 19 12 17 19 19 21 19 20 29 28 27 32 24 25 24 22 18 13 117 168 176 176 139
95 87 82 74 71 66 64 71 68 72 75 69 61 59 58 58 49 57 51 51 56 47 48 47 48 38 27 30 31 27 29 24 23 25 29 29 27 35 30 38 35 28 28 30 28 25 26 22 22 20 24 27 27 28 27 29 41 37 39 35 23 20 357 21 22 24 29 29 26 28 34 29 32 29 27 23 23 25 20 23 18 5 356 166 186
89 85 80 75 71 69 64 70 74 68 69 75 72 63 53 59 55 55 55 48 55 50 46 44 48 42 32 30 32 26 27 25 22 28 30 32 30 34 39 37 31 31 29 31 29 27 22 19 17 16 25 28 30 29 30 30 30 36 35 43 35 10 20 29 16 20 31 26 26 25 25 29 35 37 34 30 24 17 21 30 36 31 29 27 354
90 85 77 75 71 67 69 65 67 71 66 69 70 63 49 55 57 57 56 57 58 53 44 43 48 44 37 32 31 25 18 26 25 25 29 32 35 37 43 35 29 37 39 35 29 28 21 15 18 16 24 28 29 30 30 32 32 35 24 24 22 26 32 29 26 24 27 26 25 27 21 20 23 27 29 32 25 21 23 28 36 42 41 33 28
90 85 81 77 73 71 66 65 65 67 69 67 76 71 56 58 52 51 56 59 60 57 45 42 48 47 43 33 28 24 16 17 27 26 26 31 33 37 40 38 31 44 44 37 28 17 12 16 12 18 25 25 27 29 29 27 32 27 23 22 21 20 24 28 26 30 28 27 29 28 22 17 16 13 16 20 21 23 24 29 34 41 44 38 36
91 85 81 78 75 70 69 66 64 63 69 73 73 73 62 61 57 50 54 60 63 59 44 43 50 49 44 33 25 19 15 17 18 23 25 28 32 35 37 38 38 46 46 39 22 22 18 15 18 21 23 23 24 26 27 28 27 24 24 22 21 22 27 24 23 25 29 29 30 27 22 15 14 13 7 4 11 12 20 30 37 39 46 44 36
92 89 86 84 81 81 72 68 65 63 54 63 72 69 64 61 66 40 57 56 57 62 47 46 53 50 45 39 23 19 12 16 17 15 20 26 31 34 36 36 36 39 43 28 33 30 27 26 24 25 23 22 23 23 22 20 21 22 22 21 24 24 21 22 19 21 31 26 24 20 21 14 14 6 355 1 16 20 13 15 30 30 33 46 45
95 93 90 86 86 87 83 72 66 63 64 60 70 65 76 69 75 58 58 58 55 61 53 51 51 48 51 35 31 20 17 21 21 15 14 20 25 26 32 33 34 37 41 34 32 30 27 25 24 23 25 24 25 22 21 15 18 20 19 20 25 24 20 20 18 25 22 17 21 19 7 2 7 357 14 20 29 15 9 13 23 17 21 28 32
101 97 92 88 82 82 84 84 76 64 62 65 62 60 56 64 72 67 62 61 59 57 52 54 50 48 50 40 34 31 29 27 22 19 16 23 25 23 27 25 25 28 28 24 25 23 24 25 24 22 23 24 25 24 24 18 20 18 17 15 18 16 20 28 31 26 14 5 9 6 1 352 359 19 14 18 18 9 7 8 34 26 22 43 54
108 104 99 96 90 89 90 87 87 79 62 65 71 65 53 56 68 63 60 56 68 59 63 58 58 58 61 52 54 41 37 30 24 20 18 28 34 32 30 33 30 26 26 23 29 21 25 21 22 20 19 19 16 15 13 16 19 17 14 13 13 13 15 21 31 31 19 13 17 10 9 6 13 1 7 15 18 11 1 12 31 35 16 43 55
107 103 102 98 92 89 92 92 93 93 90 76 65 73 85 77 84 65 15 264 82 100 87 76 72 95 82 60 69 59 44 41 5 7 52 52 55 49 34 29 26 35 36 35 31 25 28 28 24 21 21 19 15 13 9 9 9 10 15 12 11 12 15 21 22 15 3 18 19 15 13 10 8 0 6 10 8 4 3 13 24 51 38 57 60
110 109 110 107 109 101 95 92 92 92 94 93 94 73 50 78 74 95 72 37 57 56 75 93 125 109 77 28 76 115 103 130 103 68 61 56 54 58 55 48 44 41 37 37 38 42 31 33 25 22 17 19 17 12 8 9 7 4 2 7 13 13 8 10 16 2 2 19 14 22 9 11 12 8 9 6 352 5 3 19 35 36 55 57 69
117 120 119 121 123 118 112 98 92 94 95 97 90 94 82 48 54 64 69 58 52 50 54 63 65 73 101 84 36 39 117 84 65 60 60 57 55 53 50 44 40 38 29 39 36 41 30 33 22 18 17 19 20 10 8 11 7 5 360 359 13 9 3 8 1 354 4 8 11 16 14 20 14 15 17 3 4 356 1 3 49 46 54 65 77
133 137 132 132 125 121 113 113 107 95 83 79 87 92 88 86 50 28 46 65 67 71 74 75 78 82 95 113 106 62 54 61 65 60 58 58 58 57 52 46 40 42 34 47 56 36 34 36 28 21 14 22 11 10 12 14 9 10 4 11 5 5 6 3 345 354 0 8 6 14 10 9 8 16 20 9 15 26 15 10 20 49 42 52 52
131 136 139 137 134 126 121 121 114 112 109 97 85 90 104 106 100 79 32 58 75 71 60 61 66 67 73 70 76 98 94 76 68 65 60 57 57 58 58 46 39 29 43 47 53 42 32 34 30 20 20 20 11 10 11 13 11 10 15 16 8 356 4 356 352 19 11 360 4 15 4 6 12 23 27 22 32 33 26 29 6 39 46 56 40
142 146 151 152 140 138 139 131 126 118 107 105 109 101 98 108 112 106 95 69 47 42 45 45 57 74 64 75 83 77 73 74 71 68 64 61 59 56 60 50 46 46 58 56 47 44 34 32 27 23 13 15 12 10 13 11 9 12 10 10 6 3 4 3 20 9 5 5 9 3 5 4 16 37 30 34 32 46 47 40 30 40 24 19 26
143 152 151 149 151 155 155 147 139 133 125 127 124 119 118 115 119 114 117 114 107 97 72 28 28 50 69 59 60 67 71 71 69 65 58 56 60 62 56 46 36 15 27 30 45 44 41 33 28 18 19 19 4 9 9 5 8 9 10 4 6 4 7 13 11 6 10 5 11 8 358 6 6 15 37 43 46 49 44 59 62 54 42 22 1
144 151 160 153 151 159 164 161 159 158 163 170 155 131 133 134 121 122 121 123 129 125 84 45 349 18 68 66 63 68 67 68 66 59 52 45 37 55 60 48 46 30 31 20 34 32 44 33 27 19 16 16 13 12 1 5 4 1 360 9 5 4 9 9 4 7 10 15 13 6 7 12 9 6 1 39 46 55 52 53 59 58 64 58 19
143 150 159 165 163 166 168 159 160 176 171 145 133 131 132 117 116 125 134 139 140 142 133 127 71 52 39 33 48 69 70 73 71 62 52 46 44 60 84 84 73 50 41 20 21 26 36 16 20 27 24 19 14 7 2 8 359 2 1 8 8 14 4 352 359 17 18 13 11 10 11 8 4 6 15 30 32 45 54 61 61 59 61 70 104
144 151 156 153 141 137 136 144 154 158 153 142 142 138 130 133 147 154 147 153 158 140 122 98 99 129 115 92 19 74 78 49 48 38 23 26 26 38 53 63 64 67 42 18 13 28 29 7 13 28 13 24 20 3 11 7 2 5 5 357 8 0 342 4 17 17 13 16 13 10 9 8 3 360 7 29 30 50 58 61 87 85 62 36 46
135 142 141 135 133 135 134 131 137 140 142 137 146 142 152 148 145 140 153 156 144 123 120 119 135 160 194 247 345 350 56 33 48 38 10 8 16 37 63 61 63 53 37 23 9 25 17 9 355 7 14 16 14 13 10 3 2 10 1 10 13 11 17 13 9 11 11 2 358 7 10 6 5 1 1 18 8 352 7 83 88 106 114 110 87
133 139 137 132 126 133 134 137 140 140 146 146 165 168 156 169 175 174 174 153 160 166 170 155 186 234 247 318 204 76 96 150 167 197 117 34 27 8 56 89 79 88 72 41 25 11 19 356 351 9 4 1 8 6 17 17 16 8 20 30 20 13 4 5 3 5 3 346 3 3 5 2 358 356 3 13 352 352 3 34 38 28 25 45 33
142 142 145 142 136 129 125 132 146 156 163 169 174 181 189 190 188 175 169 177 172 180 203 219 230 261 281 232 216 143 141 181 214 216 215 195 217 241 276 205 169 172 212 183 211 255 333 352 354 360 357 358 356 15 16 43 40 43 37 22 21 11 355 356 358 357 355 2 4 358 358 358 359 3 360 345 345 6 352 21 45 38 48 71 87
136 138 138 137 137 138 139 145 156 166 168 171 177 192 197 197 192 179 187 196 201 199 218 251 252 246 292 306 183 172 157 181 175 209 251 261 247 244 244 263 249 240 227 203 181 178 205 282 319 335 354 347 353 351 23 37 49 60 44 35 25 7 3 350 344 341 344 350 351 356 352 350 346 353 351 348 360 355 360 2 62 39 38 77 83
148 151 152 146 149 158 165 160 154 158 171 176 194 199 194 184 197 194 199 211 210 208 217 237 253 269 285 283 168 157 159 168 190 206 227 240 237 249 242 241 242 236 233 241 243 193 170 176 225 259 276 294 284 285 341 76 128 84 56 40 19 11 354 340 344 342 343 348 352 349 354 354 356 355 353 2 359 354 19 345 6 70 32 11 69
149 151 155 162 167 158 148 145 162 174 177 188 181 181 186 199 204 196 199 211 219 221 223 232 242 267 271 277 217 146 188 195 213 217 219 232 240 247 248 242 249 260 262 262 257 218 171 172 216 266 272 274 270 264 246 241 187 112 95 51 18 3 357 344 337 333 336 337 337 346 345 350 352 352 354 359 5 8 355 357 352 21 46 16 30
144 148 152 154 161 158 164 172 167 178 182 168 173 184 194 191 203 213 205 215 224 224 228 234 232 235 250 233 211 213 222 211 214 226 224 222 230 238 244 250 243 245 254 263 246 205 216 215 198 203 293 291 285 262 258 262 232 205 168 100 38 5 337 321 299 294 310 326 333 340 342 347 348 350 348 346 355 1 353 330 23 25 15 355 35
150 153 155 163 168 182 171 174 174 168 173 184 193 202 205 202 208 211 223 237 230 226 235 234 229 225 225 233 220 214 225 211 219 221 234 236 233 243 240 239 244 244 245 249 242 214 220 207 204 208 234 256 272 273 255 255 259 248 239 208 255 285 269 267 266 324 328 329 324 328 329 333 339 342 345 342 337 338 342 347 5 51 167 266 281
156 163 165 170 182 189 190 179 167 192 192 200 210 210 221 228 215 202 206 220 230 214 211 207 188 209 219 214 206 219 226 216 224 215 221 229 232 237 237 233 237 253 253 250 239 233 229 226 226 222 228 249 256 265 265 253 249 252 248 240 255 274 280 265 261 248 291 297 304 326 333 334 334 337 344 351 352 349 339 340 355 355 336 197 273
180 175 183 189 190 191 205 180 196 202 211 216 219 223 226 225 233 230 226 231 209 190 222 215 203 198 194 217 221 226 228 220 223 228 234 238 237 238 232 224 230 239 250 263 257 232 227 229 224 220 238 253 257 258 261 254 248 242 244 235 232 236 258 259 270 281 286 302 322 330 335 339 329 331 340 354 351 344 352 334 337 346 10 8 334
183 182 185 190 199 205 202 204 209 204 213 219 218 219 228 227 227 226 218 215 194 198 204 199 203 202 204 221 228 242 249 243 233 233 237 242 245 246 231 227 234 243 247 258 263 248 236 230 225 218 222 230 237 243 253 258 254 242 229 223 215 221 236 230 214 253 279 326 339 2 15 4 348 338 340 349 350 353 334 329 333 326 334 3 38
189 190 187 191 198 212 210 205 207 212 209 211 210 214 215 218 209 204 205 203 202 206 221 216 200 202 203 220 229 238 235 234 230 231 231 241 246 251 250 244 241 240 232 239 253 254 251 236 227 227 228 231 234 241 243 243 242 238 228 211 193 194 205 215 218 219 216 229 296 336 345 348 343 338 342 346 355 0 7 2 346 341 345 350 350
190 192 196 195 202 204 196 201 207 202 201 204 206 202 198 208 208 200 191 194 201 209 211 210 215 213 218 218 216 213 214 222 225 220 225 232 238 237 237 241 246 248 244 242 253 255 244 237 232 230 230 230 231 236 241 236 234 235 228 211 196 185 186 189 192 209 216 215 211 136 40 1 12 3 353 351 353 3 355 345 345 350 345 339 333